Wetterdaten: Donnerstag, 17.10.2019
Datum Zeit Temp. Auen Feucht Auen Luftdruck Regen Richtung Richtung Windben
17.10.2019 00:00 5,1 C 90 % 1017,2 hPa 0,0 mm W-SW 252 0,0 km/h (0 Bft)
17.10.2019 00:05 5,1 C 90 % 1017,2 hPa 0,0 mm W-SW 252 0,0 km/h (0 Bft)
17.10.2019 00:10 5,1 C 90 % 1017,2 hPa 0,0 mm W-SW 252 0,0 km/h (0 Bft)
17.10.2019 00:15 5,1 C 91 % 1017,2 hPa 0,0 mm W-SW 252 0,0 km/h (0 Bft)
17.10.2019 00:20 5,1 C 91 % 1017,1 hPa 0,0 mm W-SW 252 0,0 km/h (0 Bft)
17.10.2019 00:25 5,1 C 91 % 1017,1 hPa 0,0 mm W-SW 252 0,0 km/h (0 Bft)
17.10.2019 00:30 5,1 C 91 % 1017,0 hPa 0,0 mm W-SW 252 0,0 km/h (0 Bft)
17.10.2019 00:35 5,1 C 91 % 1017,1 hPa 0,0 mm W-SW 252 0,0 km/h (0 Bft)
17.10.2019 00:40 5,1 C 91 % 1017,1 hPa 0,0 mm W-SW 252 0,0 km/h (0 Bft)
17.10.2019 00:45 5,0 C 91 % 1017,1 hPa 0,0 mm W-SW 252 0,0 km/h (0 Bft)
17.10.2019 00:50 4,9 C 91 % 1017,0 hPa 0,0 mm W-SW 252 0,0 km/h (0 Bft)
17.10.2019 00:55 4,9 C 91 % 1017,1 hPa 0,0 mm W-SW 252 3,2 km/h (1 Bft)
17.10.2019 01:00 4,8 C 91 % 1017,1 hPa 0,0 mm W-SW 252 1,6 km/h (1 Bft)
17.10.2019 01:05 4,8 C 91 % 1017,0 hPa 0,0 mm W-SW 252 1,6 km/h (1 Bft)
17.10.2019 01:10 4,7 C 91 % 1017,1 hPa 0,0 mm W-SW 252 0,0 km/h (0 Bft)
17.10.2019 01:15 4,7 C 91 % 1017,1 hPa 0,0 mm W-SW 252 0,0 km/h (0 Bft)
17.10.2019 01:20 4,7 C 91 % 1017,1 hPa 0,0 mm W-SW 252 0,0 km/h (0 Bft)
17.10.2019 01:25 4,6 C 91 % 1017,0 hPa 0,0 mm W-SW 252 0,0 km/h (0 Bft)
17.10.2019 01:30 4,6 C 91 % 1017,1 hPa 0,0 mm W-SW 252 0,0 km/h (0 Bft)
17.10.2019 01:35 4,6 C 91 % 1017,1 hPa 0,0 mm W-SW 252 0,0 km/h (0 Bft)
17.10.2019 01:40 4,6 C 91 % 1017,1 hPa 0,0 mm W-SW 252 0,0 km/h (0 Bft)
17.10.2019 01:45 4,5 C 91 % 1017,0 hPa 0,0 mm W-SW 252 1,6 km/h (1 Bft)
17.10.2019 01:50 4,5 C 92 % 1017,1 hPa 0,0 mm W-SW 252 0,0 km/h (0 Bft)
17.10.2019 01:55 4,4 C 92 % 1017,2 hPa 0,0 mm W-SW 252 0,0 km/h (0 Bft)
17.10.2019 02:00 4,5 C 92 % 1017,1 hPa 0,0 mm W-SW 252 0,0 km/h (0 Bft)
17.10.2019 02:05 4,5 C 92 % 1017,1 hPa 0,0 mm W-SW 252 0,0 km/h (0 Bft)
17.10.2019 02:10 4,4 C 92 % 1017,1 hPa 0,0 mm W-SW 252 0,0 km/h (0 Bft)
17.10.2019 02:15 4,4 C 92 % 1017,1 hPa 0,0 mm W-SW 252 0,0 km/h (0 Bft)
17.10.2019 02:20 4,4 C 92 % 1017,1 hPa 0,0 mm W-SW 252 0,0 km/h (0 Bft)
17.10.2019 02:25 4,4 C 92 % 1017,0 hPa 0,0 mm W-SW 252 0,0 km/h (0 Bft)
17.10.2019 02:30 4,3 C 92 % 1017,0 hPa 0,0 mm W-SW 252 0,0 km/h (0 Bft)
17.10.2019 02:35 4,3 C 92 % 1017,0 hPa 0,0 mm W-SW 252 3,2 km/h (1 Bft)
17.10.2019 02:40 4,3 C 92 % 1017,0 hPa 0,0 mm W-SW 252 3,2 km/h (1 Bft)
17.10.2019 02:45 4,3 C 92 % 1017,0 hPa 0,0 mm W-SW 252 0,0 km/h (0 Bft)
17.10.2019 02:50 4,3 C 92 % 1017,0 hPa 0,0 mm W-SW 252 3,2 km/h (1 Bft)
17.10.2019 02:55 4,3 C 92 % 1017,0 hPa 0,0 mm W-SW 252 3,2 km/h (1 Bft)
17.10.2019 03:00 4,2 C 92 % 1017,0 hPa 0,0 mm W-SW 252 1,6 km/h (1 Bft)
17.10.2019 03:05 4,2 C 92 % 1017,1 hPa 0,0 mm W-SW 252 4,8 km/h (1 Bft)
17.10.2019 03:10 4,2 C 92 % 1017,2 hPa 0,0 mm W-SW 252 3,2 km/h (1 Bft)
17.10.2019 03:15 4,2 C 92 % 1017,1 hPa 0,0 mm W-SW 252 1,6 km/h (1 Bft)
17.10.2019 03:20 4,2 C 92 % 1017,1 hPa 0,0 mm W-SW 252 4,8 km/h (1 Bft)
17.10.2019 03:25 4,2 C 92 % 1017,1 hPa 0,0 mm W-SW 252 3,2 km/h (1 Bft)
17.10.2019 03:30 4,2 C 92 % 1017,0 hPa 0,0 mm W-SW 252 3,2 km/h (1 Bft)
17.10.2019 03:35 4,2 C 92 % 1017,0 hPa 0,0 mm W-SW 252 3,2 km/h (1 Bft)
17.10.2019 03:40 4,2 C 92 % 1017,0 hPa 0,0 mm W-SW 252 0,0 km/h (0 Bft)
17.10.2019 03:45 4,2 C 92 % 1017,0 hPa 0,0 mm W-SW 252 4,8 km/h (1 Bft)
17.10.2019 03:50 4,2 C 92 % 1017,1 hPa 0,0 mm W-SW 253 4,8 km/h (1 Bft)
17.10.2019 03:55 4,2 C 92 % 1017,0 hPa 0,0 mm W-SW 253 3,2 km/h (1 Bft)
17.10.2019 04:00 4,2 C 92 % 1017,1 hPa 0,0 mm W-SW 253 0,0 km/h (0 Bft)
17.10.2019 04:05 4,2 C 92 % 1017,0 hPa 0,0 mm W-SW 253 0,0 km/h (0 Bft)
17.10.2019 04:10 4,2 C 92 % 1017,1 hPa 0,0 mm W-SW 253 0,0 km/h (0 Bft)
17.10.2019 04:15 4,2 C 92 % 1017,1 hPa 0,0 mm W-SW 253 0,0 km/h (0 Bft)
17.10.2019 04:20 4,2 C 92 % 1017,1 hPa 0,0 mm W-SW 253 1,6 km/h (1 Bft)
17.10.2019 04:25 4,2 C 92 % 1017,1 hPa 0,0 mm W-SW 253 3,2 km/h (1 Bft)
17.10.2019 04:30 4,1 C 92 % 1017,1 hPa 0,0 mm W-SW 253 1,6 km/h (1 Bft)
17.10.2019 04:35 4,1 C 93 % 1017,2 hPa 0,0 mm W-SW 253 0,0 km/h (0 Bft)
17.10.2019 04:40 4,1 C 93 % 1017,2 hPa 0,0 mm W-SW 253 0,0 km/h (0 Bft)
17.10.2019 04:45 4,0 C 92 % 1017,2 hPa 0,0 mm W-SW 253 1,6 km/h (1 Bft)
17.10.2019 04:50 3,9 C 92 % 1017,2 hPa 0,0 mm W-SW 253 1,6 km/h (1 Bft)
17.10.2019 04:55 3,9 C 93 % 1017,1 hPa 0,0 mm W-SW 253 0,0 km/h (0 Bft)
17.10.2019 05:00 3,9 C 93 % 1017,1 hPa 0,0 mm W-SW 253 0,0 km/h (0 Bft)
17.10.2019 05:05 3,8 C 93 % 1017,1 hPa 0,0 mm W-SW 253 3,2 km/h (1 Bft)
17.10.2019 05:10 3,9 C 93 % 1017,2 hPa 0,0 mm W-SW 253 3,2 km/h (1 Bft)
17.10.2019 05:15 3,9 C 93 % 1017,2 hPa 0,2 mm W-SW 253 1,6 km/h (1 Bft)
17.10.2019 05:20 3,9 C 93 % 1017,2 hPa 0,0 mm W-SW 253 3,2 km/h (1 Bft)
17.10.2019 05:25 3,9 C 93 % 1017,1 hPa 0,0 mm W-SW 253 3,2 km/h (1 Bft)
17.10.2019 05:30 3,9 C 93 % 1017,1 hPa 0,0 mm W-SW 253 3,2 km/h (1 Bft)
17.10.2019 05:35 3,9 C 93 % 1017,1 hPa 0,0 mm W-SW 253 1,6 km/h (1 Bft)
17.10.2019 05:40 3,9 C 93 % 1017,2 hPa 0,0 mm W-SW 253 1,6 km/h (1 Bft)
17.10.2019 05:45 3,9 C 93 % 1017,1 hPa 0,0 mm W-SW 253 0,0 km/h (0 Bft)
17.10.2019 05:50 3,9 C 93 % 1017,1 hPa 0,0 mm W-SW 253 0,0 km/h (0 Bft)
17.10.2019 05:55 3,9 C 93 % 1017,1 hPa 0,0 mm W-SW 253 0,0 km/h (0 Bft)
17.10.2019 06:00 3,8 C 93 % 1017,2 hPa 0,0 mm W-SW 253 0,0 km/h (0 Bft)
17.10.2019 06:05 3,8 C 93 % 1017,2 hPa 0,0 mm W-SW 253 0,0 km/h (0 Bft)
17.10.2019 06:10 3,8 C 93 % 1017,2 hPa 0,0 mm W-SW 253 3,2 km/h (1 Bft)
17.10.2019 06:15 3,8 C 93 % 1017,2 hPa 0,0 mm W-SW 253 3,2 km/h (1 Bft)
17.10.2019 06:20 3,7 C 93 % 1017,1 hPa 0,0 mm W-SW 253 4,8 km/h (1 Bft)
17.10.2019 06:25 3,7 C 93 % 1017,2 hPa 0,0 mm W-SW 253 0,0 km/h (0 Bft)
17.10.2019 06:30 3,7 C 93 % 1017,2 hPa 0,0 mm W-SW 253 0,0 km/h (0 Bft)
17.10.2019 06:35 3,7 C 93 % 1017,2 hPa 0,0 mm W-SW 253 0,0 km/h (0 Bft)
17.10.2019 06:40 3,7 C 93 % 1017,1 hPa 0,0 mm W-SW 253 3,2 km/h (1 Bft)
17.10.2019 06:45 3,6 C 93 % 1017,1 hPa 0,0 mm W-SW 253 4,8 km/h (1 Bft)
17.10.2019 06:50 3,7 C 93 % 1017,1 hPa 0,0 mm W-SW 253 3,2 km/h (1 Bft)
17.10.2019 06:55 3,6 C 93 % 1017,2 hPa 0,0 mm W-SW 253 0,0 km/h (0 Bft)
17.10.2019 07:00 3,6 C 93 % 1017,2 hPa 0,0 mm W-SW 253 3,2 km/h (1 Bft)
17.10.2019 07:05 3,7 C 93 % 1017,4 hPa 0,0 mm W-SW 253 4,8 km/h (1 Bft)
17.10.2019 07:10 3,7 C 93 % 1017,3 hPa 0,0 mm W-SW 253 1,6 km/h (1 Bft)
17.10.2019 07:15 3,7 C 93 % 1017,4 hPa 0,0 mm W-SW 253 1,6 km/h (1 Bft)
17.10.2019 07:20 3,7 C 93 % 1017,4 hPa 0,0 mm W-SW 253 1,6 km/h (1 Bft)
17.10.2019 07:25 3,8 C 93 % 1017,5 hPa 0,0 mm W-SW 253 0,0 km/h (0 Bft)
17.10.2019 07:30 3,8 C 93 % 1017,6 hPa 0,0 mm W-SW 253 1,6 km/h (1 Bft)
17.10.2019 07:35 3,8 C 93 % 1017,7 hPa 0,0 mm W-SW 253 3,2 km/h (1 Bft)
17.10.2019 07:40 3,9 C 93 % 1017,8 hPa 0,0 mm W-SW 253 0,0 km/h (0 Bft)
17.10.2019 07:45 4,0 C 93 % 1017,8 hPa 0,0 mm W-SW 253 0,0 km/h (0 Bft)
17.10.2019 07:50 4,1 C 93 % 1017,9 hPa 0,0 mm W-SW 253 1,6 km/h (1 Bft)
17.10.2019 07:55 4,2 C 94 % 1017,9 hPa 0,0 mm W-SW 253 0,0 km/h (0 Bft)
17.10.2019 08:00 4,7 C 94 % 1018,0 hPa 0,0 mm W-SW 253 1,6 km/h (1 Bft)
17.10.2019 08:05 5,3 C 94 % 1018,2 hPa 0,0 mm W-SW 253 0,0 km/h (0 Bft)
17.10.2019 08:10 5,5 C 94 % 1018,2 hPa 0,0 mm W-SW 253 0,0 km/h (0 Bft)
17.10.2019 08:15 5,6 C 94 % 1018,3 hPa 0,0 mm W-SW 253 0,0 km/h (0 Bft)
17.10.2019 08:20 5,6 C 94 % 1018,3 hPa 0,0 mm W-SW 253 1,6 km/h (1 Bft)
17.10.2019 08:25 5,6 C 94 % 1018,4 hPa 0,0 mm W-SW 253 0,0 km/h (0 Bft)
17.10.2019 08:30 5,7 C 94 % 1018,5 hPa 0,0 mm W-SW 253 0,0 km/h (0 Bft)
17.10.2019 08:35 5,9 C 94 % 1018,6 hPa 0,0 mm W-SW 253 0,0 km/h (0 Bft)
17.10.2019 08:40 6,3 C 94 % 1018,6 hPa 0,0 mm W-SW 253 1,6 km/h (1 Bft)
17.10.2019 08:45 6,8 C 94 % 1018,7 hPa 0,0 mm W-SW 253 0,0 km/h (0 Bft)
17.10.2019 08:50 6,9 C 94 % 1018,8 hPa 0,0 mm W-SW 253 0,0 km/h (0 Bft)
17.10.2019 08:55 7,4 C 94 % 1018,8 hPa 0,0 mm W-SW 253 0,0 km/h (0 Bft)
17.10.2019 09:00 7,1 C 94 % 1018,8 hPa 0,0 mm W-SW 253 0,0 km/h (0 Bft)
17.10.2019 09:05 7,0 C 94 % 1018,8 hPa 0,0 mm W-SW 253 0,0 km/h (0 Bft)
17.10.2019 09:10 6,9 C 94 % 1018,8 hPa 0,0 mm W-SW 253 0,0 km/h (0 Bft)
17.10.2019 09:15 7,2 C 94 % 1018,8 hPa 0,0 mm W-SW 253 1,6 km/h (1 Bft)
17.10.2019 09:20 7,7 C 94 % 1018,8 hPa 0,0 mm W-SW 253 0,0 km/h (0 Bft)
17.10.2019 09:25 8,8 C 94 % 1018,8 hPa 0,0 mm W-SW 253 0,0 km/h (0 Bft)
17.10.2019 09:30 8,9 C 93 % 1018,8 hPa 0,0 mm W-SW 253 0,0 km/h (0 Bft)
17.10.2019 09:35 8,8 C 93 % 1018,7 hPa 0,0 mm W-SW 253 1,6 km/h (1 Bft)
17.10.2019 09:40 9,1 C 93 % 1018,7 hPa 0,0 mm W-SW 253 3,2 km/h (1 Bft)
17.10.2019 09:45 9,1 C 93 % 1018,7 hPa 0,0 mm W-SW 253 4,8 km/h (1 Bft)
17.10.2019 09:50 8,8 C 92 % 1018,7 hPa 0,0 mm W-SW 253 4,8 km/h (1 Bft)
17.10.2019 09:55 8,7 C 93 % 1018,7 hPa 0,0 mm SO 134 4,8 km/h (1 Bft)
17.10.2019 10:00 8,6 C 93 % 1018,7 hPa 0,0 mm SO 134 3,2 km/h (1 Bft)
17.10.2019 10:05 8,9 C 93 % 1018,6 hPa 0,0 mm SO 134 3,2 km/h (1 Bft)
17.10.2019 10:10 9,3 C 93 % 1018,6 hPa 0,0 mm SO 134 4,8 km/h (1 Bft)
17.10.2019 10:15 9,7 C 93 % 1018,6 hPa 0,0 mm SO 134 4,8 km/h (1 Bft)
17.10.2019 10:20 10,0 C 93 % 1018,5 hPa 0,0 mm SO 134 4,8 km/h (1 Bft)
17.10.2019 10:25 10,3 C 92 % 1018,5 hPa 0,0 mm SO 134 3,2 km/h (1 Bft)
17.10.2019 10:30 10,6 C 91 % 1018,5 hPa 0,0 mm SO 133 4,8 km/h (1 Bft)
17.10.2019 10:35 10,9 C 90 % 1018,5 hPa 0,0 mm O-SO 121 6,4 km/h (2 Bft)
17.10.2019 10:40 11,2 C 90 % 1018,4 hPa 0,0 mm O-SO 121 4,8 km/h (1 Bft)
17.10.2019 10:45 11,7 C 90 % 1018,4 hPa 0,0 mm O-SO 122 4,8 km/h (1 Bft)
17.10.2019 10:50 11,6 C 89 % 1018,4 hPa 0,0 mm O-SO 122 4,8 km/h (1 Bft)
17.10.2019 10:55 11,7 C 88 % 1018,3 hPa 0,0 mm O-SO 123 4,8 km/h (1 Bft)
17.10.2019 11:00 12,1 C 87 % 1018,4 hPa 0,0 mm O-SO 123 4,8 km/h (1 Bft)
17.10.2019 11:05 12,1 C 87 % 1018,5 hPa 0,0 mm O-SO 123 3,2 km/h (1 Bft)
17.10.2019 11:10 12,2 C 86 % 1018,5 hPa 0,0 mm O-SO 123 1,6 km/h (1 Bft)
17.10.2019 11:15 12,6 C 86 % 1018,4 hPa 0,0 mm O-SO 123 1,6 km/h (1 Bft)
17.10.2019 11:20 13,1 C 85 % 1018,4 hPa 0,0 mm O-SO 123 1,6 km/h (1 Bft)
17.10.2019 11:25 13,2 C 85 % 1018,3 hPa 0,0 mm O-SO 123 3,2 km/h (1 Bft)
17.10.2019 11:30 13,4 C 82 % 1018,3 hPa 0,0 mm O-SO 123 1,6 km/h (1 Bft)
17.10.2019 11:35 14,1 C 80 % 1018,3 hPa 0,0 mm O-SO 123 3,2 km/h (1 Bft)
17.10.2019 11:40 14,1 C 80 % 1018,2 hPa 0,0 mm O-SO 123 3,2 km/h (1 Bft)
17.10.2019 11:45 14,3 C 80 % 1018,2 hPa 0,0 mm O-SO 123 3,2 km/h (1 Bft)
17.10.2019 11:50 14,6 C 80 % 1018,3 hPa 0,0 mm O-SO 123 3,2 km/h (1 Bft)
17.10.2019 11:55 15,1 C 78 % 1018,3 hPa 0,0 mm O-SO 123 1,6 km/h (1 Bft)
17.10.2019 12:00 15,1 C 76 % 1018,1 hPa 0,0 mm O-SO 123 4,8 km/h (1 Bft)
17.10.2019 12:05 15,1 C 79 % 1018,0 hPa 0,0 mm O-SO 123 3,2 km/h (1 Bft)
17.10.2019 12:10 15,4 C 77 % 1018,0 hPa 0,0 mm O-SO 123 3,2 km/h (1 Bft)
17.10.2019 12:15 15,6 C 77 % 1018,0 hPa 0,0 mm O-SO 110 4,8 km/h (1 Bft)
17.10.2019 12:20 15,8 C 74 % 1018,0 hPa 0,0 mm O-SO 110 3,2 km/h (1 Bft)
17.10.2019 12:25 15,9 C 71 % 1017,9 hPa 0,0 mm O-SO 110 3,2 km/h (1 Bft)
17.10.2019 12:30 16,1 C 74 % 1017,8 hPa 0,0 mm O-SO 110 3,2 km/h (1 Bft)
17.10.2019 12:35 16,1 C 72 % 1017,8 hPa 0,0 mm SO 134 4,8 km/h (1 Bft)
17.10.2019 12:40 15,9 C 71 % 1017,8 hPa 0,0 mm SO 134 4,8 km/h (1 Bft)
17.10.2019 12:45 16,1 C 69 % 1017,7 hPa 0,0 mm SO 134 3,2 km/h (1 Bft)
17.10.2019 12:50 16,4 C 69 % 1017,6 hPa 0,0 mm SO 134 1,6 km/h (1 Bft)
17.10.2019 12:55 16,7 C 72 % 1017,6 hPa 0,0 mm O-SO 120 4,8 km/h (1 Bft)
17.10.2019 13:00 16,6 C 71 % 1017,5 hPa 0,0 mm O-SO 119 4,8 km/h (1 Bft)
17.10.2019 13:05 16,9 C 69 % 1017,4 hPa 0,0 mm O-SO 119 3,2 km/h (1 Bft)
17.10.2019 13:10 16,9 C 69 % 1017,4 hPa 0,0 mm SO 128 6,4 km/h (2 Bft)
17.10.2019 13:15 17,0 C 67 % 1017,3 hPa 0,0 mm SO 128 3,2 km/h (1 Bft)
17.10.2019 13:20 17,3 C 64 % 1017,4 hPa 0,0 mm SO 128 1,6 km/h (1 Bft)
17.10.2019 13:25 18,1 C 58 % 1017,3 hPa 0,0 mm W 266 6,4 km/h (2 Bft)
17.10.2019 13:30 18,4 C 59 % 1017,3 hPa 0,0 mm W-SW 257 8,0 km/h (2 Bft)
17.10.2019 13:35 18,3 C 57 % 1017,2 hPa 0,0 mm W 275 9,7 km/h (2 Bft)
17.10.2019 13:40 18,3 C 56 % 1017,2 hPa 0,0 mm W 277 9,7 km/h (2 Bft)
17.10.2019 13:45 18,3 C 55 % 1017,1 hPa 0,0 mm W 266 8,0 km/h (2 Bft)
17.10.2019 13:50 18,1 C 55 % 1017,0 hPa 0,0 mm W-NW 295 4,8 km/h (1 Bft)
17.10.2019 13:55 17,9 C 57 % 1017,0 hPa 0,0 mm SO 138 3,2 km/h (1 Bft)
17.10.2019 14:00 18,1 C 56 % 1017,0 hPa 0,0 mm W 277 6,4 km/h (2 Bft)
17.10.2019 14:05 18,2 C 58 % 1017,0 hPa 0,0 mm W 276 1,6 km/h (1 Bft)
17.10.2019 14:10 18,3 C 58 % 1016,9 hPa 0,0 mm W 281 6,4 km/h (2 Bft)
17.10.2019 14:15 18,2 C 61 % 1016,8 hPa 0,0 mm W-NW 294 6,4 km/h (2 Bft)
17.10.2019 14:20 18,1 C 59 % 1016,7 hPa 0,0 mm S-SW 195 4,8 km/h (1 Bft)
17.10.2019 14:25 18,1 C 60 % 1016,8 hPa 0,0 mm SO 132 6,4 km/h (2 Bft)
17.10.2019 14:30 17,9 C 67 % 1016,7 hPa 0,0 mm O 97 8,0 km/h (2 Bft)
17.10.2019 14:35 17,8 C 66 % 1016,8 hPa 0,0 mm O 101 8,0 km/h (2 Bft)
17.10.2019 14:40 17,7 C 65 % 1016,6 hPa 0,0 mm O 96 8,0 km/h (2 Bft)
17.10.2019 14:45 17,7 C 63 % 1016,7 hPa 0,0 mm S-SO 159 4,8 km/h (1 Bft)
17.10.2019 14:50 17,8 C 63 % 1016,6 hPa 0,0 mm SO 131 4,8 km/h (1 Bft)
17.10.2019 14:55 17,7 C 63 % 1016,6 hPa 0,0 mm S-SO 161 6,4 km/h (2 Bft)
17.10.2019 15:00 17,7 C 65 % 1016,5 hPa 0,0 mm O-SO 113 4,8 km/h (1 Bft)
17.10.2019 15:05 17,6 C 62 % 1016,5 hPa 0,0 mm O-SO 113 4,8 km/h (1 Bft)
17.10.2019 15:10 17,6 C 64 % 1016,4 hPa 0,0 mm S-SO 148 4,8 km/h (1 Bft)
17.10.2019 15:15 17,7 C 66 % 1016,3 hPa 0,0 mm S-SO 148 3,2 km/h (1 Bft)
17.10.2019 15:20 17,6 C 64 % 1016,1 hPa 0,0 mm O-SO 118 6,4 km/h (2 Bft)
17.10.2019 15:25 17,7 C 67 % 1016,1 hPa 0,0 mm SO 146 6,4 km/h (2 Bft)
17.10.2019 15:30 17,6 C 64 % 1016,1 hPa 0,0 mm O-SO 115 6,4 km/h (2 Bft)
17.10.2019 15:35 17,5 C 66 % 1015,9 hPa 0,0 mm O-SO 122 8,0 km/h (2 Bft)
17.10.2019 15:40 17,4 C 66 % 1015,9 hPa 0,0 mm SO 128 8,0 km/h (2 Bft)
17.10.2019 15:45 17,4 C 68 % 1015,8 hPa 0,0 mm O-SO 119 8,0 km/h (2 Bft)
17.10.2019 15:50 17,3 C 67 % 1015,7 hPa 0,0 mm O-SO 119 9,7 km/h (2 Bft)
17.10.2019 15:55 17,2 C 67 % 1015,7 hPa 0,0 mm SO 130 9,7 km/h (2 Bft)
17.10.2019 16:00 17,1 C 66 % 1015,8 hPa 0,0 mm SO 134 8,0 km/h (2 Bft)
17.10.2019 16:05 17,1 C 67 % 1015,7 hPa 0,0 mm O-SO 106 8,0 km/h (2 Bft)
17.10.2019 16:10 17,1 C 68 % 1015,7 hPa 0,0 mm SO 140 8,0 km/h (2 Bft)
17.10.2019 16:15 17,0 C 69 % 1015,6 hPa 0,0 mm O-SO 107 8,0 km/h (2 Bft)
17.10.2019 16:20 16,9 C 67 % 1015,6 hPa 0,0 mm O-SO 103 6,4 km/h (2 Bft)
17.10.2019 16:25 16,8 C 69 % 1015,5 hPa 0,0 mm SO 137 6,4 km/h (2 Bft)
17.10.2019 16:30 16,7 C 69 % 1015,6 hPa 0,0 mm SO 127 4,8 km/h (1 Bft)
17.10.2019 16:35 16,6 C 69 % 1015,6 hPa 0,0 mm SO 127 4,8 km/h (1 Bft)
17.10.2019 16:40 16,5 C 70 % 1015,6 hPa 0,0 mm SO 127 4,8 km/h (1 Bft)
17.10.2019 16:45 16,4 C 70 % 1015,6 hPa 0,0 mm O-SO 117 6,4 km/h (2 Bft)
17.10.2019 16:50 16,4 C 71 % 1015,5 hPa 0,0 mm O-SO 112 4,8 km/h (1 Bft)
17.10.2019 16:55 16,3 C 72 % 1015,5 hPa 0,0 mm O 93 8,0 km/h (2 Bft)
17.10.2019 17:00 16,2 C 72 % 1015,5 hPa 0,0 mm O 89 4,8 km/h (1 Bft)
17.10.2019 17:05 16,1 C 73 % 1015,5 hPa 0,0 mm O 89 4,8 km/h (1 Bft)
17.10.2019 17:10 15,9 C 74 % 1015,5 hPa 0,0 mm O 89 4,8 km/h (1 Bft)
17.10.2019 17:15 15,8 C 74 % 1015,4 hPa 0,0 mm O 89 3,2 km/h (1 Bft)
17.10.2019 17:20 15,6 C 74 % 1015,4 hPa 0,0 mm O 95 4,8 km/h (1 Bft)
17.10.2019 17:25 15,3 C 74 % 1015,3 hPa 0,0 mm O-SO 103 4,8 km/h (1 Bft)
17.10.2019 17:30 15,1 C 75 % 1015,3 hPa 0,0 mm O-SO 103 4,8 km/h (1 Bft)
17.10.2019 17:35 14,9 C 75 % 1015,3 hPa 0,0 mm O-SO 103 1,6 km/h (1 Bft)
17.10.2019 17:40 14,9 C 76 % 1015,2 hPa 0,0 mm O-SO 103 3,2 km/h (1 Bft)
17.10.2019 17:45 14,8 C 76 % 1015,2 hPa 0,0 mm O-SO 103 3,2 km/h (1 Bft)
17.10.2019 17:50 14,6 C 76 % 1015,2 hPa 0,0 mm O-SO 103 3,2 km/h (1 Bft)
17.10.2019 17:55 14,5 C 76 % 1015,3 hPa 0,0 mm O-SO 103 1,6 km/h (1 Bft)
17.10.2019 18:00 14,3 C 77 % 1015,3 hPa 0,0 mm O-SO 103 0,0 km/h (0 Bft)
17.10.2019 18:05 14,2 C 77 % 1015,3 hPa 0,0 mm O-SO 103 0,0 km/h (0 Bft)
17.10.2019 18:10 13,9 C 76 % 1015,3 hPa 0,0 mm O-SO 103 0,0 km/h (0 Bft)
17.10.2019 18:15 13,6 C 77 % 1015,3 hPa 0,0 mm O-SO 103 0,0 km/h (0 Bft)
17.10.2019 18:20 13,5 C 78 % 1015,3 hPa 0,0 mm O-SO 103 0,0 km/h (0 Bft)
17.10.2019 18:25 13,3 C 78 % 1015,3 hPa 0,0 mm O-SO 103 0,0 km/h (0 Bft)
17.10.2019 18:30 13,1 C 78 % 1015,2 hPa 0,0 mm O-SO 103 0,0 km/h (0 Bft)
17.10.2019 18:35 12,9 C 78 % 1015,3 hPa 0,0 mm O-SO 103 0,0 km/h (0 Bft)
17.10.2019 18:40 12,7 C 78 % 1015,4 hPa 0,0 mm O-SO 103 0,0 km/h (0 Bft)
17.10.2019 18:45 12,5 C 79 % 1015,3 hPa 0,0 mm O-SO 103 1,6 km/h (1 Bft)
17.10.2019 18:50 12,3 C 79 % 1015,3 hPa 0,0 mm O-SO 103 0,0 km/h (0 Bft)
17.10.2019 18:55 12,1 C 79 % 1015,3 hPa 0,0 mm O-SO 103 0,0 km/h (0 Bft)
17.10.2019 19:00 11,9 C 79 % 1015,3 hPa 0,0 mm O-SO 103 0,0 km/h (0 Bft)
17.10.2019 19:05 11,7 C 80 % 1015,4 hPa 0,0 mm O-SO 103 0,0 km/h (0 Bft)
17.10.2019 19:10 11,5 C 80 % 1015,4 hPa 0,0 mm O-SO 103 0,0 km/h (0 Bft)
17.10.2019 19:15 11,3 C 81 % 1015,4 hPa 0,0 mm O-SO 103 0,0 km/h (0 Bft)
17.10.2019 19:20 11,1 C 82 % 1015,6 hPa 0,0 mm O-SO 103 3,2 km/h (1 Bft)
17.10.2019 19:25 10,9 C 82 % 1015,5 hPa 0,0 mm O-SO 103 3,2 km/h (1 Bft)
17.10.2019 19:30 10,8 C 82 % 1015,4 hPa 0,0 mm O-SO 103 0,0 km/h (0 Bft)
17.10.2019 19:35 10,7 C 83 % 1015,4 hPa 0,0 mm O-SO 103 0,0 km/h (0 Bft)
17.10.2019 19:40 10,5 C 83 % 1015,5 hPa 0,0 mm O-SO 103 0,0 km/h (0 Bft)
17.10.2019 19:45 10,4 C 83 % 1015,4 hPa 0,0 mm O-SO 103 0,0 km/h (0 Bft)
17.10.2019 19:50 10,3 C 83 % 1015,4 hPa 0,0 mm O-SO 103 0,0 km/h (0 Bft)
17.10.2019 19:55 10,2 C 84 % 1015,4 hPa 0,0 mm O-SO 103 0,0 km/h (0 Bft)
17.10.2019 20:00 10,1 C 84 % 1015,5 hPa 0,0 mm O-SO 103 0,0 km/h (0 Bft)
17.10.2019 20:05 9,9 C 84 % 1015,5 hPa 0,0 mm O-SO 103 0,0 km/h (0 Bft)
17.10.2019 20:10 9,8 C 84 % 1015,5 hPa 0,0 mm O-SO 103 0,0 km/h (0 Bft)
17.10.2019 20:15 9,7 C 84 % 1015,6 hPa 0,0 mm O-SO 103 0,0 km/h (0 Bft)
17.10.2019 20:20 9,6 C 85 % 1015,5 hPa 0,0 mm O-SO 103 1,6 km/h (1 Bft)
17.10.2019 20:25 9,4 C 85 % 1015,5 hPa 0,0 mm O-SO 103 0,0 km/h (0 Bft)
17.10.2019 20:30 9,3 C 85 % 1015,4 hPa 0,0 mm O-SO 103 0,0 km/h (0 Bft)
17.10.2019 20:35 9,2 C 86 % 1015,4 hPa 0,0 mm O-SO 103 0,0 km/h (0 Bft)
17.10.2019 20:40 9,1 C 86 % 1015,5 hPa 0,0 mm O-SO 103 0,0 km/h (0 Bft)
17.10.2019 20:45 9,0 C 86 % 1015,5 hPa 0,0 mm O-SO 103 0,0 km/h (0 Bft)
17.10.2019 20:50 8,9 C 86 % 1015,6 hPa 0,0 mm O-SO 103 0,0 km/h (0 Bft)
17.10.2019 20:55 8,9 C 86 % 1015,7 hPa 0,0 mm O-SO 103 3,2 km/h (1 Bft)
17.10.2019 21:00 8,8 C 86 % 1015,7 hPa 0,0 mm O-SO 103 4,8 km/h (1 Bft)
17.10.2019 21:05 8,8 C 87 % 1015,6 hPa 0,0 mm O-SO 103 1,6 km/h (1 Bft)
17.10.2019 21:10 8,8 C 87 % 1015,7 hPa 0,0 mm O-SO 103 3,2 km/h (1 Bft)
17.10.2019 21:15 8,8 C 87 % 1015,7 hPa 0,0 mm O-SO 103 3,2 km/h (1 Bft)
17.10.2019 21:20 8,7 C 88 % 1015,6 hPa 0,0 mm O-SO 103 0,0 km/h (0 Bft)
17.10.2019 21:25 8,7 C 88 % 1015,7 hPa 0,0 mm O-SO 103 0,0 km/h (0 Bft)
17.10.2019 21:30 8,6 C 88 % 1015,7 hPa 0,0 mm O-SO 103 0,0 km/h (0 Bft)
17.10.2019 21:35 8,6 C 88 % 1015,7 hPa 0,0 mm O-SO 103 0,0 km/h (0 Bft)
17.10.2019 21:40 8,6 C 88 % 1015,7 hPa 0,0 mm O-SO 103 0,0 km/h (0 Bft)
17.10.2019 21:45 8,6 C 88 % 1015,7 hPa 0,0 mm O-SO 103 0,0 km/h (0 Bft)
17.10.2019 21:50 8,5 C 89 % 1015,8 hPa 0,0 mm O-SO 103 0,0 km/h (0 Bft)
17.10.2019 21:55 8,4 C 89 % 1015,8 hPa 0,0 mm O-SO 103 0,0 km/h (0 Bft)
17.10.2019 22:00 8,4 C 89 % 1015,9 hPa 0,0 mm O-SO 103 0,0 km/h (0 Bft)
17.10.2019 22:05 8,3 C 88 % 1015,9 hPa 0,0 mm O-SO 103 0,0 km/h (0 Bft)
17.10.2019 22:10 8,3 C 88 % 1015,9 hPa 0,0 mm O-SO 103 0,0 km/h (0 Bft)
17.10.2019 22:15 8,2 C 88 % 1015,9 hPa 0,0 mm O-SO 103 0,0 km/h (0 Bft)
17.10.2019 22:20 8,2 C 89 % 1016,0 hPa 0,0 mm O-SO 103 0,0 km/h (0 Bft)
17.10.2019 22:25 8,1 C 89 % 1016,1 hPa 0,0 mm O-SO 103 0,0 km/h (0 Bft)
17.10.2019 22:30 8,1 C 89 % 1016,0 hPa 0,0 mm O-SO 103 0,0 km/h (0 Bft)
17.10.2019 22:35 8,1 C 89 % 1016,0 hPa 0,0 mm O-SO 103 0,0 km/h (0 Bft)
17.10.2019 22:40 7,9 C 89 % 1016,1 hPa 0,0 mm O-SO 103 0,0 km/h (0 Bft)
17.10.2019 22:45 7,9 C 89 % 1016,0 hPa 0,0 mm O-SO 103 0,0 km/h (0 Bft)
17.10.2019 22:50 7,8 C 89 % 1015,9 hPa 0,0 mm O-SO 103 0,0 km/h (0 Bft)
17.10.2019 22:55 7,8 C 89 % 1016,1 hPa 0,0 mm O-SO 103 0,0 km/h (0 Bft)
17.10.2019 23:00 7,7 C 89 % 1016,1 hPa 0,0 mm O-SO 103 0,0 km/h (0 Bft)
17.10.2019 23:05 7,6 C 89 % 1016,1 hPa 0,0 mm O-SO 103 0,0 km/h (0 Bft)
17.10.2019 23:10 7,6 C 89 % 1016,1 hPa 0,0 mm O-SO 103 0,0 km/h (0 Bft)
17.10.2019 23:15 7,5 C 90 % 1016,1 hPa 0,0 mm O-SO 103 0,0 km/h (0 Bft)
17.10.2019 23:20 7,5 C 90 % 1016,1 hPa 0,0 mm O-SO 103 0,0 km/h (0 Bft)
17.10.2019 23:25 7,4 C 90 % 1016,1 hPa 0,0 mm O-SO 103 0,0 km/h (0 Bft)
17.10.2019 23:30 7,4 C 90 % 1016,1 hPa 0,0 mm O-SO 103 0,0 km/h (0 Bft)
17.10.2019 23:35 7,3 C 90 % 1016,1 hPa 0,0 mm O-SO 103 0,0 km/h (0 Bft)
17.10.2019 23:40 7,3 C 90 % 1016,0 hPa 0,0 mm O-SO 103 0,0 km/h (0 Bft)
17.10.2019 23:45 7,2 C 90 % 1016,0 hPa 0,0 mm O-SO 103 0,0 km/h (0 Bft)
17.10.2019 23:50 7,2 C 90 % 1016,0 hPa 0,0 mm O-SO 103 0,0 km/h (0 Bft)
17.10.2019 23:55 7,1 C 90 % 1016,1 hPa 0,0 mm O-SO 103 0,0 km/h (0 Bft)
_ Min-Zeit 06:45 13:45 17:40 - - - 00:00
Minimum _ 3,6 C 55 % 1015,2 hPa - - - 0,0 km/h (0 Bft)
_ Max-Zeit 13:30 07:55 08:50 05:15 - - 13:35
Maximum _ 18,4 C 94 % 1018,8 hPa 0,2 mm - - 9,7 km/h
W (2 Bft)
Durchschnitt _ 9,6 C 84 % 1016,8 hPa #0,2 mm W-SW - 2,3 km/h (1 Bft)